• MPC Preparation (Info)

  • MPEC 2015-N37 : 2015 NW9

    The following Minor Planet Electronic Circular may be linked-to from your own Web pages, but must not otherwise be redistributed electronically.

    A form allowing access to any MPEC is at the bottom of this page.


    Read MPEC 2015-N36 Read MPEC 2015-N38


    M.P.E.C. 2015-N37                                Issued 2015 July 13, 02:22 UT
    
         The Minor Planet Electronic Circulars contain information on unusual
             minor planets and routine data on comets.  They are published
       on behalf of Commission 20 of the International Astronomical Union by the
              Minor Planet Center, Smithsonian Astrophysical Observatory,
                              Cambridge, MA 02138, U.S.A.
    
                 Prepared using the Tamkin Foundation Computer Network
    
                                  MPC@CFA.HARVARD.EDU
                URL https://www.minorplanetcenter.net/    ISSN 1523-6714
    
                                       2015 NW9
    
    Observations:
         K15N09W* C2015 07 09.29579 14 58 01.787+05 03 52.70         21.8 wLEN037F51
         K15N09W  C2015 07 09.32110 14 58 01.900+05 04 38.85         21.5 wLEN037F51
         K15N09W  C2015 07 09.33358 14 58 01.955+05 05 02.09         21.7 wLEN037F51
         K15N09W _C2015 07 10.37448914 58 13.973+05 36 15.84         21.7 RtEN037568
         K15N09W _C2015 07 10.37581814 58 13.984+05 36 18.23         21.6 RtEN037568
         K15N09W _C2015 07 10.37711214 58 13.998+05 36 20.50         21.6 RtEN037568
         K15N09W =C2015 07 11.25582 14 58 27.53 +06 02 01.1          21.3 RtEN037568
         K15N09W =C2015 07 11.25719 14 58 27.55 +06 02 03.4          21.4 RtEN037568
         K15N09W =C2015 07 11.25856 14 58 27.56 +06 02 05.8          21.1 RtEN037568
         K15N09W =C2015 07 11.27361 14 58 27.71 +06 02 31.9          21.4 RtEN037568
         K15N09W =C2015 07 11.27499 14 58 27.73 +06 02 34.2          21.4 RtEN037568
         K15N09W =C2015 07 11.27630 14 58 27.74 +06 02 36.5          21.4 RtEN037568
         K15N09W  C2015 07 12.29718 14 58 45.561+06 31 37.99         21.8 wLEN037F51
         K15N09W  C2015 07 12.30989 14 58 45.742+06 31 59.14         21.7 wLEN037F51
         K15N09W  C2015 07 12.32237 14 58 45.911+06 32 20.04         21.9 wLEN037F51
    
    Observer details:
    568 Mauna Kea.  Observers R. J. Wainscoat, L. Wells, C. Wipper.  Measurers
        M. Micheli, R. J. Wainscoat, P. Veres.  3.6-m Canada-France-Hawaii
        Telescope + CCD.
    F51 Pan-STARRS 1, Haleakala.  Observers B. Gibson, T. Goggia, N. Primak,
        A. Schultz, M. Willman.  Measurers K. Chambers, S. Chastel, L. Denneau,
        H. Flewelling, M. Huber, E. Lilly, E. Magnier, R. Wainscoat, C. Waters,
        R. Weryk.  1.8-m Ritchey-Chretien + CCD.
    
    Orbital elements:
    2015 NW9                                                 Earth MOID = 0.2754 AU
    Epoch 2015 June 27.0 TT = JDT 2457200.5                 MPC
    M 306.00774              (2000.0)            P               Q
    n   0.50498639     Peri.  101.26167     +0.87252526     +0.20499313
    a   1.5617671      Node   248.19545     -0.31362225     +0.93101553
    e   0.3203959      Incl.   28.53247     +0.37462082     +0.30197336
    P   1.95           H   20.5           G   0.15           U   7
    Residuals in seconds of arc
    150709 F51  0.0   0.1-    150710 568  0.1+  0.1+    150711 568  0.0   0.0
    150709 F51  0.1+  0.1-    150711 568  0.1-  0.0     150711 568  0.0   0.0
    150709 F51  0.0   0.3+    150711 568  0.0   0.0     150712 F51  0.0   0.2+
    150710 568  0.1+  0.1+    150711 568  0.0   0.0     150712 F51  0.1+  0.0
    150710 568  0.1+  0.1+    150711 568  0.0   0.1+    150712 F51  0.1+  0.0
    
    Ephemeris:
    2015 NW9                 a,e,i = 1.56, 0.32, 29                  q = 1.0614
    Date    TT    R. A. (2000) Decl.     Delta      r     Elong.  Phase     V
    2015 06 13    15 13 27.0 -13 17 21   0.5043  1.4671   147.8    21.6    20.9
    ...
    2015 06 28    14 59 35.8 -01 36 43   0.5343  1.3974   125.7    36.2    21.3
    ...
    2015 07 06    14 57 45.8 +03 18 51   0.5633  1.3603   115.8    42.3    21.6
    ...
    2015 07 12    14 58 40.3 +06 23 18   0.5878  1.3326   109.4    46.0    21.7
    2015 07 13    14 58 59.9 +06 51 10   0.5920  1.3280   108.4    46.6    21.7
    2015 07 14    14 59 22.5 +07 18 16   0.5962  1.3234   107.4    47.1    21.8
    ...
    2015 07 20    15 02 36.5 +09 45 40   0.6215  1.2961   101.9    50.1    21.9
    ...
    2015 07 28    15 09 16.7 +12 27 28   0.6538  1.2606    95.6    53.3    22.0
    ...
    2015 08 12    15 27 47.5 +16 13 21   0.7040  1.1980    86.5    57.6    22.2
    
    A. U. Tomatic                (C) Copyright 2015 MPC           M.P.E.C. 2015-N37
    

    Read MPEC 2015-N36 Read MPEC 2015-N38


    MPEC number:

    Enter an MPEC number in one of the following forms:

    • 1997-B01 (the full form)
    • J97B01 (the packed version of the full form)
    • B01 (the abbreviated form)